Other Surface Observations
Issued by NWS Jacksonville, FL

Home | Current Version | Previous Version | Text Only | Print | Product List | Glossary On
Versions: 1 2 3 4 5 6 7 8 9 10 11 12 13 14 15 16 17 18 19 20 21 22 23 24 25 26 27 28 29 30 31 32 33 34 35 36 37 38 39 40 41 42 43 44 45 46 47 48 49 50
000
SXUS52 KJAX 240410
OSOJAX
OTHER SURFACE OBSERVATIONS
NATIONAL WEATHER SERVICE JACKSONVILLE FL
1200 AM EDT WED SEP 24 2014

FLZ020>025-030>033-035>038-040-240500-
...FLORIDA...

CITY           SKY/WX    TMP DP  RH WIND       PRES   REMARKS
CECIL FIELD    CLOUDY    72  66  83 N6        30.09S
HERLONG FIELD  NOT AVBL
FERNANDINA BCH NOT AVBL
LAKE CITY      MOCLDY    68  64  88 NE10G16   30.10S
JUNIPER SPGS   NOT AVBL
BUNNELL        CLOUDY    75  69  82 N7        30.04F
KEYSTONE HGTS    N/A     72  70  94 N6        30.08S
$$

GAZ132>136-149>154-162>166-240500-
...GEORGIA...

CITY           SKY/WX    TMP DP  RH WIND       PRES   REMARKS
JESUP          CLOUDY    70  63  78 NE6       30.16S
HOMERVILLE     CLOUDY    72  63  73 NE9G18    30.15R
SWAINSBORO     FAIR      63  61  94 NE7       30.23R
CORDELE        NOT AVBL
$$

PLEASE NOTE:  THESE OBSERVATIONS ARE NOT QUALITY CONTROLLED AND MAY
NOT BE AVAILABLE AT ALL TIMES.
$$


USA.gov is the U.S. government's official web portal to all federal, state and local government web resources and services.